Flag for Germany Weather past 2 weeks in Bramsche, Lower Saxony, Germany

Now
56 °F

Fog.


Feels Like: 56 °F
Forecast: 47 / 57 °F
Wind: 3 mph from Southwest

Location: Muenster / Osnabrueck

Current Time: Oct 25, 2014 at 9:23:51 PM

Latest Report: Oct 25, 2014 at 9:00 PM


Visibility: 3 mi

Pressure: 30.14 "Hg

Humidity: 93%

Dew point: 54 °F

Location of BramscheLocation

Historic Weather in Bramsche — Graph

°F

Bramsche temperature yesterday

Maximum temperature yesterday: 56 °F (at 4:00 PM)
Minimum temperature yesterday: 52 °F (at 6:00 AM)
Average temperature yesterday: 54 °F

Past Weeks' High & Low Weather Summary

 TemperatureHumidityPressure
High73 °F (Oct 19, 4:00 PM)100% (Oct 11, 8:00 AM)30.22 "Hg (Oct 11, 8:00 AM)
Low46 °F (Oct 22, 2:00 AM)51% (Oct 14, 3:00 PM)29.41 "Hg (Oct 21, 5:00 PM)
Average55 °F84%29.90 "Hg
* Reported Oct 10 8:00 PM — Oct 25 8:00 PM, Bramsche, Weather by CustomWeather, © 2014

Note: Actual official high and low records may vary slightly from our data, if they occured in-between our weather recording intervals... More about our weather records

Advertising

Bramsche weather history for previous 24 hours

 ConditionsComfort  
Time TempWeatherWind HumidityBarometerVisibility
8:00 PM
Oct 25
55 °FLow clouds.2 mph95%30.14 "Hg3 mi
7:00 PM55 °FRain. Low clouds.3 mph96%30.12 "Hg2 mi
6:00 PM56 °FLow clouds.2 mph94%30.11 "Hg4 mi
5:00 PM56 °FFog.2 mph93%30.11 "Hg3 mi
4:00 PM55 °FLow clouds.2 mph95%30.10 "Hg3 mi
3:00 PM56 °FRain. Low clouds.2 mph92%30.10 "Hg2 mi
2:00 PM55 °FFog.3 mph91%30.09 "Hg4 mi
1:00 PM55 °FFog.3 mph94%30.09 "Hg3 mi
12:00 PM54 °FFog.3 mph95%30.08 "Hg2 mi
11:00 AM53 °FFog.3 mph97%30.08 "Hg1 mi
10:00 AM53 °FRain. Low clouds.2 mph96%30.06 "Hg2 mi
9:00 AM52 °FFog.3 mph95%30.05 "Hg2 mi
8:00 AM51 °FLow clouds.2 mph96%30.03 "Hg2 mi
7:00 AM51 °FLow clouds.2 mph95%30.03 "Hg4 mi
6:00 AM51 °FLow clouds.3 mph92%30.02 "Hg5 mi
5:00 AM51 °FOvercast.3 mph93%30.02 "Hg6 mi
4:00 AM51 °FLight rain. Overcast.2 mph94%30.02 "Hg4 mi
3:00 AM53 °FLight rain. Overcast.2 mph79%30.03 "Hg6 mi
2:00 AM53 °FOvercast.3 mph75%30.04 "Hg11 mi
1:00 AM53 °FOvercast.3 mph76%30.04 "Hg12 mi
12:00 AM54 °FOvercast.3 mph75%30.04 "Hg11 mi
11:00 PM
Oct 24
54 °FOvercast.3 mph76%30.05 "Hg11 mi
10:00 PM54 °FOvercast.3 mph75%30.05 "Hg11 mi
9:00 PM54 °FOvercast.3 mph74%30.06 "Hg12 mi
Weather by CustomWeather, © 2014

See weather overviewHow to use our weather pages